TimeMDT,TemperatureF,Dew PointF,Humidity,Sea Level PressureIn,VisibilityMPH,Wind Direction,Wind SpeedMPH,Gust SpeedMPH,PrecipitationIn,Events,Conditions,WindDirDegrees,DateUTC
12:55 AM,48.9,46.0,90,30.20,7.0,North,10.4,-,0.02,Rain,Light Rain,360,2011-10-09 06:55:00
1:55 AM,48.0,45.0,89,30.20,5.0,North,12.7,-,0.00,,Overcast,360,2011-10-09 07:55:00
2:17 AM,48.2,44.6,87,30.19,4.0,North,12.7,-,0.01,Rain,Light Rain,10,2011-10-09 08:17:00
3:55 AM,48.0,45.0,89,30.19,10.0,North,13.8,-,0.00,,Overcast,360,2011-10-09 09:55:00
4:39 AM,48.2,44.6,87,30.19,5.0,North,11.5,-,0.00,,Overcast,10,2011-10-09 10:39:00
4:55 AM,46.9,45.0,93,30.19,4.0,NNE,11.5,-,0.00,,Overcast,20,2011-10-09 10:55:00
5:55 AM,48.0,45.0,89,30.20,7.0,NNE,9.2,-,N/A,,Overcast,20,2011-10-09 11:55:00
6:50 AM,48.2,44.6,87,30.19,10.0,North,10.4,-,N/A,,Overcast,10,2011-10-09 12:50:00
6:55 AM,48.0,45.0,89,30.20,10.0,North,9.2,-,N/A,,Overcast,10,2011-10-09 12:55:00
7:38 AM,46.4,44.6,93,30.17,4.0,North,9.2,-,N/A,,Overcast,10,2011-10-09 13:38:00
7:55 AM,48.0,45.0,89,30.19,7.0,NNE,11.5,-,N/A,,Overcast,20,2011-10-09 13:55:00
8:55 AM,48.0,45.0,89,30.19,10.0,NNE,10.4,19.6,N/A,,Overcast,20,2011-10-09 14:55:00
9:55 AM,48.9,45.0,86,30.17,10.0,NNE,11.5,-,N/A,,Overcast,20,2011-10-09 15:55:00
10:55 AM,48.9,45.0,86,30.16,10.0,NNE,10.4,-,N/A,,Overcast,30,2011-10-09 16:55:00
11:55 AM,48.9,45.0,86,30.14,10.0,NNE,10.4,-,N/A,,Overcast,20,2011-10-09 17:55:00
12:55 PM,48.9,46.0,90,30.11,10.0,North,8.1,-,N/A,,Overcast,360,2011-10-09 18:55:00
1:55 PM,48.9,46.0,90,30.08,10.0,North,9.2,-,N/A,,Overcast,350,2011-10-09 19:55:00
2:55 PM,48.9,46.0,90,30.06,10.0,North,6.9,-,N/A,,Overcast,350,2011-10-09 20:55:00
3:55 PM,50.0,46.0,86,30.06,10.0,North,8.1,-,N/A,,Overcast,350,2011-10-09 21:55:00
4:55 PM,48.9,46.0,90,30.05,10.0,NW,6.9,-,N/A,,Overcast,320,2011-10-09 22:55:00
5:55 PM,48.9,46.0,90,30.03,10.0,NNW,5.8,-,N/A,,Overcast,340,2011-10-09 23:55:00
6:55 PM,48.9,46.0,90,30.01,9.0,North,5.8,-,0.00,Rain,Light Rain,350,2011-10-10 00:55:00
7:55 PM,48.9,46.0,90,30.01,9.0,NW,3.5,-,0.01,Rain,Light Rain,320,2011-10-10 01:55:00
8:55 PM,48.9,46.0,90,30.00,9.0,WNW,4.6,-,0.01,Rain,Light Rain,290,2011-10-10 02:55:00
9:06 PM,48.2,46.4,93,29.99,8.0,WNW,3.5,-,0.00,Rain,Light Rain,290,2011-10-10 03:06:00
9:28 PM,48.2,46.4,93,29.99,8.0,West,3.5,-,0.00,Rain,Light Rain,270,2011-10-10 03:28:00
9:55 PM,48.9,46.0,90,29.99,8.0,West,5.8,-,0.01,Rain,Light Rain,270,2011-10-10 03:55:00
10:55 PM,48.9,46.0,90,29.99,8.0,Calm,Calm,-,0.01,Rain,Light Rain,0,2011-10-10 04:55:00
11:21 PM,48.2,46.4,93,29.97,9.0,WSW,4.6,-,0.00,Rain,Light Rain,240,2011-10-10 05:21:00
11:34 PM,48.2,46.4,93,29.98,9.0,WSW,3.5,-,0.00,Rain,Light Rain,240,2011-10-10 05:34:00
11:55 PM,48.9,46.0,90,29.98,8.0,SW,3.5,-,0.01,Rain,Light Rain,230,2011-10-10 05:55:00